Location: De Har
(53.3413°N, 6.6858°E)
Time: 08:21:15
(UTC+00:00)

H-2A R/B - Pass Details

Date: 22 April 2026
Orbit: 729 x 829 km, 98.3° (Epoch: 15 May)

Event Time Altitude Azimuth Distance (km) Brightness Sun altitude
Rises 01:16:07 0° 26° (NNE) 3,241 6.8 -20.8°
Reaches altitude 10° 01:19:15 10° 47° (NE) 2,329 5.5 -20.6°
Maximum altitude 01:22:34 17° 87° (E) 1,896 4.4 -20.4°
Drops below altitude 10° 01:25:55 10° 128° (SE) 2,360 4.4 -20.1°
Enters shadow 01:28:01 - 142° (SE) 2,955 4.8 -20.0°
